• In Sweden
  • List of Countries
  • For 7 days
  • Water Temperature
  • Satellite Maps
  • Weather Map
  • Weather Widgets
  • user-avatar
    Login

    Hourly Weather Stafford

    Today, 22 November, Wednesday

    Time Temperature Precipitation Wind Pressure Humidity
    00:00 +13°C° 0 mm 5 mps 741 mmHg 91%
    01:00 +13°C° 1 mm 6 mps 741 mmHg 90%
    02:00 +12°C° 1 mm 7 mps 740 mmHg 90%
    03:00 +12°C° 1 mm 7 mps 740 mmHg 89%
    04:00 +12°C° 0.2 mm 8 mps 739 mmHg 88%
    05:00 +12°C° 0.2 mm 8 mps 739 mmHg 87%
    06:00 +12°C° 0.2 mm 8 mps 738 mmHg 85%
    07:00 +12°C° 0.1 mm 8 mps 738 mmHg 85%
    08:00 +12°C° 0.1 mm 9 mps 737 mmHg 84%
    09:00 +12°C° 0.1 mm 9 mps 736 mmHg 84%
    10:00 +13°C° 0.1 mm 10 mps 736 mmHg 83%
    11:00 +13°C° 0.1 mm 10 mps 735 mmHg 82%
    12:00 +13°C° 0.1 mm 10 mps 734 mmHg 81%
    13:00 +13°C° 0.1 mm 11 mps 734 mmHg 81%
    14:00 +13°C° 0.1 mm 11 mps 733 mmHg 80%
    15:00 +13°C° 0.1 mm 11 mps 732 mmHg 80%
    16:00 +13°C° 0.2 mm 11 mps 731 mmHg 79%
    17:00 +13°C° 0.2 mm 12 mps 730 mmHg 79%
    18:00 +13°C° 0.2 mm 12 mps 729 mmHg 79%
    19:00 +13°C° 0.5 mm 11 mps 729 mmHg 79%
    20:00 +13°C° 0.5 mm 11 mps 729 mmHg 80%
    21:00 +13°C° 0.5 mm 11 mps 729 mmHg 81%
    22:00 +13°C° 0.4 mm 10 mps 728 mmHg 82%
    23:00 +12°C° 0.4 mm 9 mps 728 mmHg 83%

    Tomorrow, 23 November, Thursday

    Time Temperature Precipitation Wind Pressure Humidity
    00:00 +12°C° 0.4 mm 9 mps 728 mmHg 84%
    01:00 +12°C° 0.5 mm 8 mps 728 mmHg 84%
    02:00 +12°C° 0.5 mm 8 mps 728 mmHg 84%
    03:00 +11°C° 0.5 mm 8 mps 728 mmHg 84%
    04:00 +10°C° 0.2 mm 8 mps 729 mmHg 82%
    05:00 +7°C° 0.2 mm 8 mps 730 mmHg 80%
    06:00 +6°C° 0.2 mm 7 mps 731 mmHg 78%
    07:00 +6°C° 0 mm 8 mps 732 mmHg 75%
    08:00 +5°C° 0 mm 8 mps 733 mmHg 72%
    09:00 +5°C° 0 mm 9 mps 735 mmHg 69%
    10:00 +5°C° 0 mm 9 mps 736 mmHg 67%
    11:00 +6°C° 0 mm 9 mps 737 mmHg 64%
    12:00 +7°C° 0 mm 10 mps 739 mmHg 61%
    13:00 +6°C° 0 mm 8 mps 740 mmHg 62%
    14:00 +6°C° 0 mm 7 mps 741 mmHg 63%
    15:00 +7°C° 0 mm 5 mps 742 mmHg 64%
    16:00 +6°C° 0 mm 5 mps 742 mmHg 66%
    17:00 +6°C° 0 mm 4 mps 743 mmHg 68%
    18:00 +7°C° 0 mm 3 mps 744 mmHg 70%
    19:00 +5°C° 0.1 mm 3 mps 744 mmHg 72%
    20:00 +6°C° 0.1 mm 2 mps 744 mmHg 74%
    21:00 +6°C° 0.1 mm 2 mps 744 mmHg 76%
    22:00 +6°C° 0.3 mm 2 mps 744 mmHg 77%
    23:00 +6°C° 0.3 mm 2 mps 744 mmHg 77%

    Day after tomorrow, 24 November, Friday

    Time Temperature Precipitation Wind Pressure Humidity
    00:00 +6°C° 0.3 mm 1 mps 744 mmHg 77%
    01:00 +5°C° 0 mm 2 mps 744 mmHg 78%
    02:00 +5°C° 0 mm 2 mps 745 mmHg 78%
    03:00 +5°C° 0 mm 2 mps 745 mmHg 78%
    04:00 +4°C° 0 mm 2 mps 746 mmHg 79%
    05:00 +4°C° 0 mm 2 mps 746 mmHg 79%
    06:00 +3°C° 0 mm 2 mps 746 mmHg 80%
    07:00 +3°C° 0 mm 2 mps 747 mmHg 80%
    08:00 +3°C° 0 mm 2 mps 747 mmHg 80%
    09:00 +3°C° 0 mm 2 mps 748 mmHg 80%
    10:00 +4°C° 0.1 mm 2 mps 748 mmHg 78%
    11:00 +5°C° 0.1 mm 2 mps 748 mmHg 75%
    12:00 +6°C° 0.1 mm 2 mps 748 mmHg 73%
    13:00 +5°C° 0.4 mm 2 mps 748 mmHg 75%
    14:00 +5°C° 0.4 mm 2 mps 748 mmHg 76%
    15:00 +6°C° 0.4 mm 1 mps 748 mmHg 78%
    16:00 +5°C° 0.1 mm 1 mps 749 mmHg 78%
    17:00 +5°C° 0.1 mm 1 mps 749 mmHg 79%
    18:00 +4°C° 0.1 mm 1 mps 749 mmHg 79%
    19:00 +4°C° 0 mm 1 mps 749 mmHg 80%
    20:00 +3°C° 0 mm 2 mps 749 mmHg 80%
    21:00 +3°C° 0 mm 2 mps 749 mmHg 81%
    22:00 +2°C° 0 mm 2 mps 749 mmHg 80%
    23:00 +2°C° 0 mm 2 mps 749 mmHg 80%

    25 November, Saturday

    Time Temperature Precipitation Wind Pressure Humidity
    00:00 +1°C° 0 mm 3 mps 749 mmHg 79%
    01:00 0°C° 0 mm 3 mps 749 mmHg 78%
    02:00 0°C° 0 mm 3 mps 749 mmHg 77%
    03:00 0°C° 0 mm 3 mps 749 mmHg 77%
    04:00 0°C° 0 mm 3 mps 749 mmHg 77%
    05:00 -1°C° 0 mm 4 mps 749 mmHg 78%
    06:00 -1°C° 0 mm 4 mps 749 mmHg 78%
    07:00 -1°C° 0 mm 4 mps 750 mmHg 77%
    08:00 0°C° 0 mm 5 mps 750 mmHg 76%
    09:00 0°C° 0 mm 5 mps 750 mmHg 75%
    10:00 +1°C° 0.1 mm 6 mps 750 mmHg 72%
    11:00 +2°C° 0.1 mm 7 mps 751 mmHg 68%
    12:00 +2°C° 0.1 mm 8 mps 751 mmHg 65%
    13:00 +3°C° 0.2 mm 7 mps 751 mmHg 67%
    14:00 +2°C° 0.2 mm 7 mps 752 mmHg 68%
    15:00 +2°C° 0.2 mm 6 mps 752 mmHg 69%
    16:00 +2°C° 0 mm 6 mps 752 mmHg 71%
    17:00 +1°C° 0 mm 6 mps 753 mmHg 73%
    18:00 -1°C° 0 mm 6 mps 753 mmHg 74%
    19:00 -1°C° 0 mm 6 mps 753 mmHg 75%
    20:00 +1°C° 0 mm 6 mps 753 mmHg 75%
    21:00 +1°C° 0 mm 6 mps 754 mmHg 75%
    22:00 +1°C° 0.1 mm 6 mps 754 mmHg 77%
    23:00 0°C° 0.1 mm 7 mps 754 mmHg 78%

    26 November, Sunday

    Time Temperature Precipitation Wind Pressure Humidity
    00:00 +2°C° 0.1 mm 7 mps 754 mmHg 80%
    01:00 +2°C° 0.2 mm 7 mps 754 mmHg 81%
    02:00 +2°C° 0.2 mm 6 mps 754 mmHg 81%
    03:00 +2°C° 0.2 mm 6 mps 755 mmHg 82%
    04:00 +2°C° 0.1 mm 6 mps 755 mmHg 83%
    05:00 +2°C° 0.1 mm 5 mps 755 mmHg 83%
    06:00 +2°C° 0.1 mm 5 mps 755 mmHg 84%
    07:00 +2°C° 0.2 mm 5 mps 756 mmHg 83%
    08:00 +2°C° 0.2 mm 5 mps 756 mmHg 82%
    09:00 +2°C° 0.2 mm 5 mps 757 mmHg 82%
    10:00 +3°C° 0.2 mm 5 mps 757 mmHg 78%
    11:00 +3°C° 0.2 mm 5 mps 757 mmHg 75%
    12:00 +4°C° 0.2 mm 6 mps 757 mmHg 72%
    13:00 +5°C° 0.1 mm 5 mps 757 mmHg 73%
    14:00 +3°C° 0.1 mm 5 mps 757 mmHg 75%
    15:00 +4°C° 0.1 mm 4 mps 757 mmHg 76%
    16:00 +4°C° 0.1 mm 4 mps 757 mmHg 78%
    17:00 +3°C° 0.1 mm 4 mps 758 mmHg 80%
    18:00 +3°C° 0.1 mm 4 mps 758 mmHg 82%
    19:00 +3°C° 0 mm 4 mps 758 mmHg 82%
    20:00 +1°C° 0 mm 4 mps 758 mmHg 82%
    21:00 +1°C° 0 mm 4 mps 758 mmHg 82%
    22:00 +1°C° 0 mm 4 mps 758 mmHg 84%
    23:00 +1°C° 0 mm 4 mps 758 mmHg 85%

    27 November, Monday

    Time Temperature Precipitation Wind Pressure Humidity
    00:00 0°C° 0 mm 4 mps 758 mmHg 86%
    01:00 0°C° 0 mm 4 mps 757 mmHg 86%
    02:00 +1°C° 0 mm 4 mps 757 mmHg 86%
    03:00 +1°C° 0 mm 4 mps 756 mmHg 86%
    04:00 +1°C° 0.1 mm 4 mps 755 mmHg 86%
    05:00 +1°C° 0.1 mm 5 mps 754 mmHg 85%
    06:00 +2°C° 0.1 mm 5 mps 753 mmHg 85%
    07:00 +3°C° 0.6 mm 6 mps 752 mmHg 86%
    08:00 +3°C° 0.6 mm 6 mps 751 mmHg 87%
    09:00 +4°C° 0.6 mm 6 mps 751 mmHg 87%
    10:00 +4°C° 0.8 mm 7 mps 750 mmHg 87%
    11:00 +5°C° 0.8 mm 7 mps 749 mmHg 86%
    12:00 +5°C° 0.8 mm 8 mps 748 mmHg 86%
    13:00 +5°C° 1.1 mm 7 mps 747 mmHg 87%
    14:00 +4°C° 1.1 mm 6 mps 746 mmHg 88%
    15:00 +4°C° 1.1 mm 6 mps 745 mmHg 90%
    16:00 +3°C° 1.1 mm 5 mps 744 mmHg 88%
    17:00 +4°C° 1.1 mm 4 mps 743 mmHg 87%
    18:00 +3°C° 1.1 mm 3 mps 743 mmHg 85%
    19:00 +3°C° 0.2 mm 3 mps 743 mmHg 85%
    20:00 +3°C° 0.2 mm 2 mps 742 mmHg 86%
    21:00 +3°C° 0.2 mm 2 mps 742 mmHg 86%
    22:00 +3°C° 0.1 mm 2 mps 742 mmHg 87%
    23:00 +2°C° 0.1 mm 3 mps 742 mmHg 88%
    Show more